DW1774 Weather Reports


time (UTC)temp
F
wind
direction
speed
knots
gust
knots
rain 1hr
in
rain 24hr
in
rain mn
in
humidity
%
barometer
mb
20260505190404 81 192 4.3 10.4 0.00 0.00 0.00 80 1009.2
20260505185904 80 169 4.3 13.0 0.00 0.00 0.00 80 1009.2
20260505185404 80 207 2.6 13.0 0.00 0.00 0.00 80 1009.2
20260505184904 80 184 4.3 8.7 0.00 0.00 0.00 81 1009.2
20260505183904 80 192 4.3 7.8 0.00 0.00 0.00 81 1009.4
20260505183404 80 181 1.7 7.8 0.00 0.00 0.00 81 1009.5
20260505182903 80 184 4.3 10.4 0.00 0.00 0.00 80 1009.5
20260505182405 80 187 3.5 10.4 0.00 0.00 0.00 80 1009.5
20260505181903 81 173 2.6 10.4 0.00 0.00 0.00 79 1009.5
20260505181404 81 163 3.5 10.4 0.00 0.00 0.00 78 1009.5
20260505180904 81 139 2.6 7.8 0.00 0.00 0.00 78 1009.5
20260505180404 81 163 1.7 12.2 0.00 0.00 0.00 79 1009.5
20260505175905 80 193 5.2 12.2 0.00 0.00 0.00 79 1009.6
20260505175404 80 197 6.1 11.3 0.00 0.00 0.00 79 1009.6
20260505174905 80 178 5.2 12.2 0.00 0.00 0.00 79 1009.6
20260505174404 80 196 4.3 12.2 0.00 0.00 0.00 80 1009.7
20260505173905 80 203 4.3 8.7 0.00 0.00 0.00 79 1009.7
20260505173404 80 190 4.3 8.7 0.00 0.00 0.00 79 1009.7
20260505172905 80 172 2.6 8.7 0.00 0.00 0.00 79 1009.7
20260505172405 80 194 2.6 11.3 0.00 0.00 0.00 80 1009.8
20260505171904 80 195 2.6 11.3 0.00 0.00 0.00 80 1009.9
20260505171404 80 180 2.6 10.4 0.00 0.00 0.00 80 1009.9
20260505170904 80 218 2.6 10.4 0.00 0.00 0.00 80 1009.9
20260505170404 79 191 4.3 12.2 0.00 0.00 0.00 80 1010.0
20260505165904 80 190 5.2 12.2 0.00 0.00 0.00 80 1010.0
20260505165404 80 208 4.3 10.4 0.00 0.00 0.00 79 1009.9
20260505164904 80 180 4.3 10.4 0.00 0.00 0.00 79 1009.8
20260505164404 80 205 3.5 8.7 0.00 0.00 0.00 78 1009.8
20260505163405 80 201 1.7 7.0 0.00 0.00 0.00 78 1009.8
20260505162905 80 159 2.6 10.4 0.00 0.00 0.00 79 1009.8
20260505162404 80 209 4.3 10.4 0.00 0.00 0.00 78 1009.8
20260505161906 80 203 1.7 11.3 0.00 0.00 0.00 78 1009.8
20260505161403 80 207 4.3 11.3 0.00 0.00 0.00 78 1009.8
20260505160905 80 217 2.6 8.7 0.00 0.00 0.00 77 1009.8
20260505160404 80 181 2.6 10.4 0.00 0.00 0.00 77 1009.7
20260505152904 80 202 4.3 10.4 0.00 0.00 0.00 76 1009.5
20260505152404 80 191 4.3 10.4 0.00 0.00 0.00 77 1009.5
20260505151904 80 220 4.3 12.2 0.00 0.00 0.00 77 1009.4
20260505151404 80 174 4.3 13.9 0.00 0.00 0.00 77 1009.3
20260505150905 80 182 6.1 13.9 0.00 0.00 0.00 81 1009.3
20260505150404 79 170 4.3 11.3 0.00 0.00 0.00 83 1009.4
20260505140404 77 202 2.6 10.4 0.00 0.00 0.00 82 1009.6
20260505124404 74 168 1.7 6.1 0.00 0.00 0.00 85 1009.3
20260505123904 74 179 2.6 7.0 0.00 0.00 0.00 84 1009.1
20260505122904 74 190 2.6 7.8 0.00 0.00 0.00 85 1008.9
20260505122404 74 183 2.6 7.8 0.00 0.00 0.00 85 1008.8
20260505121904 74 158 3.5 7.8 0.00 0.00 0.00 85 1008.8
20260505121404 74 173 1.7 7.0 0.00 0.00 0.00 85 1008.9
20260505120904 74 179 1.7 7.0 0.00 0.00 0.00 85 1009.1
20260505115904 74 180 1.7 7.0 0.00 0.00 0.00 85 1009.2
20260505115405 74 190 1.7 7.8 0.00 0.00 0.00 85 1009.0
20260505114905 74 230 2.6 8.7 0.00 0.00 0.00 85 1008.9
20260505114404 74 204 2.6 8.7 0.00 0.00 0.00 84 1008.9
20260505113904 74 168 1.7 8.7 0.00 0.00 0.00 84 1008.9
20260505113405 74 172 2.6 8.7 0.00 0.00 0.00 84 1008.8
20260505112905 74 169 2.6 7.0 0.00 0.00 0.00 84 1008.8
20260505111904 74 195 2.6 7.0 0.00 0.00 0.00 84 1008.9
20260505111404 74 200 1.7 4.3 0.00 0.00 0.00 84 1008.9
20260505110904 74 199 1.7 7.8 0.00 0.00 0.00 84 1009.1
20260505110405 74 185 2.6 7.8 0.00 0.00 0.00 84 1009.2
20260505101905 73 147 0.9 4.3 0.00 0.00 0.00 83 1009.0
20260505101405 73 173 0.9 6.1 0.00 0.00 0.00 83 1008.9
20260505100904 73 171 2.6 6.1 0.00 0.00 0.00 83 1008.8
20260505100405 73 193 2.6 6.1 0.00 0.00 0.00 83 1008.7
20260505095904 73 177 1.7 6.1 0.00 0.00 0.00 83 1008.8
20260505095404 73 189 2.6 6.1 0.00 0.00 0.00 83 1008.8
20260505094404 73 183 2.6 7.0 0.00 0.00 0.00 83 1008.9
20260505093905 73 192 1.7 4.3 0.00 0.00 0.00 83 1009.2
20260505093404 73 194 0.9 5.2 0.00 0.00 0.00 83 1009.3
20260505092403 73 185 1.7 4.3 0.00 0.00 0.00 82 1009.2
20260505091905 73 188 1.7 6.1 0.00 0.00 0.00 82 1009.1
20260505091404 73 165 2.6 6.1 0.00 0.00 0.00 82 1009.1
20260505090904 74 186 1.7 5.2 0.00 0.00 0.00 82 1009.2
20260505090405 74 184 1.7 4.3 0.00 0.00 0.00 82 1009.3
20260505085904 74 258 1.7 7.0 0.00 0.00 0.00 82 1009.2
20260505085404 74 158 1.7 7.0 0.00 0.00 0.00 82 1009.2
20260505084905 74 204 1.7 6.1 0.00 0.00 0.00 82 1009.1
20260505084404 74 208 2.6 11.3 0.00 0.00 0.00 82 1009.1
20260505083904 74 198 0.9 11.3 0.00 0.00 0.00 82 1009.1
20260505083404 74 186 1.7 7.0 0.00 0.00 0.00 82 1009.2
20260505082904 74 216 2.6 10.4 0.00 0.00 0.00 82 1009.3
20260505082404 74 195 5.2 10.4 0.00 0.00 0.00 81 1009.2
20260505081904 74 179 1.7 7.0 0.00 0.00 0.00 81 1009.3
20260505081403 73 161 2.6 6.1 0.00 0.00 0.00 82 1009.3
20260505080905 73 189 1.7 6.1 0.00 0.00 0.00 81 1009.4
20260505080404 73 198 2.6 6.1 0.00 0.00 0.00 81 1009.4
20260505075905 73 174 1.7 6.1 0.00 0.00 0.00 82 1009.5
20260505074905 73 159 1.7 8.7 0.00 0.00 0.00 82 1009.6
20260505074405 73 180 2.6 8.7 0.00 0.00 0.00 82 1009.6
20260505073404 73 232 3.5 10.4 0.00 0.00 0.00 82 1009.6
20260505072903 73 188 2.6 6.1 0.00 0.00 0.00 82 1009.6
20260505072404 73 189 2.6 7.0 0.00 0.00 0.00 82 1009.6
20260505071905 72 177 1.7 7.0 0.00 0.00 0.00 82 1009.7
20260505071404 72 194 0.9 6.1 0.00 0.00 0.00 82 1009.7
20260505070904 72 196 1.7 7.0 0.00 0.00 0.00 82 1009.7
20260505070404 72 187 3.5 7.0 0.00 0.00 0.00 82 1009.8
20260505065904 72 206 2.6 5.2 0.00 0.00 0.00 82 1010.0
20260505065405 72 214 1.7 5.2 0.00 0.00 0.00 82 1010.0
20260505064904 72 184 1.7 5.2 0.00 0.00 0.00 82 1010.1
20260505064404 72 197 1.7 7.8 0.00 0.00 0.00 82 1010.3
20260505063404 72 186 2.6 10.4 0.00 0.00 0.00 81 1010.3
20260505062904 72 186 1.7 6.1 0.00 0.00 0.00 81 1010.6
20260505061905 72 162 1.7 6.1 0.00 0.00 0.00 81 1010.5
20260505061404 71 171 1.7 6.1 0.00 0.00 0.00 81 1010.6
20260505060905 71 171 2.6 6.1 0.00 0.00 0.00 81 1010.7
20260505060405 71 175 3.5 6.1 0.00 0.00 0.00 81 1010.6
20260505055405 71 176 1.7 5.2 0.00 0.00 0.00 81 1010.6
20260505054905 71 210 1.7 4.3 0.00 0.00 0.00 80 1010.7
20260505054404 71 175 1.7 6.1 0.00 0.00 0.00 80 1010.7
20260505053904 71 171 1.7 6.1 0.00 0.00 0.00 80 1010.8
20260505053404 71 191 1.7 7.8 0.00 0.00 0.00 80 1010.7
20260505052905 71 161 2.6 7.8 0.00 0.00 0.00 80 1010.7
20260505052405 71 197 2.6 7.8 0.00 0.00 0.00 80 1010.7
20260505051904 71 180 1.7 5.2 0.00 0.00 0.00 80 1010.8
20260505051403 71 190 1.7 5.2 0.00 0.00 0.00 80 1010.9
20260505050404 71 146 1.7 7.8 0.00 0.00 0.00 80 1010.8
20260505040404 72 179 2.6 5.2 0.00 0.00 0.00 77 1011.2
20260505035905 72 156 1.7 5.2 0.00 0.00 0.00 77 1011.3
20260505035404 72 165 2.6 5.2 0.00 0.00 0.00 77 1011.3
20260505034904 72 175 2.6 7.8 0.00 0.00 0.00 77 1011.4
20260505034404 72 177 1.7 7.8 0.00 0.00 0.00 76 1011.5
20260505033904 72 172 2.6 7.8 0.00 0.00 0.00 76 1011.4
20260505033404 72 179 1.7 5.2 0.00 0.00 0.00 76 1011.4
20260505032904 72 165 1.7 5.2 0.00 0.00 0.00 75 1011.5
20260505032404 72 158 0.9 6.1 0.00 0.00 0.00 75 1011.4
20260505031904 72 167 1.7 6.1 0.00 0.00 0.00 75 1011.4
20260505030404 72 177 2.6 7.0 0.00 0.00 0.00 74 1011.5
20260505024903 73 179 1.7 7.0 0.00 0.00 0.00 74 1011.5
20260505024404 73 173 2.6 7.0 0.00 0.00 0.00 73 1011.5
20260505023404 73 163 2.6 8.7 0.00 0.00 0.00 73 1011.3
20260505022904 73 176 1.7 7.0 0.00 0.00 0.00 73 1011.4
20260505022404 73 170 2.6 7.0 0.00 0.00 0.00 73 1011.4
20260505021905 73 180 2.6 8.7 0.00 0.00 0.00 72 1011.3
20260505021404 73 167 3.5 10.4 0.00 0.00 0.00 72 1011.3
20260505020904 73 159 4.3 11.3 0.00 0.00 0.00 72 1011.2
20260505020404 74 173 5.2 11.3 0.00 0.00 0.00 72 1011.3
20260505015905 74 187 1.7 8.7 0.00 0.00 0.00 72 1011.2
20260505014903 74 186 2.6 7.0 0.00 0.00 0.00 71 1011.1
20260505014403 74 172 2.6 8.7 0.00 0.00 0.00 71 1011.1
20260505013404 74 162 5.2 10.4 0.00 0.00 0.00 71 1011.0
20260505012904 74 179 3.5 8.7 0.00 0.00 0.00 71 1011.1
20260505012404 74 181 1.7 10.4 0.00 0.00 0.00 70 1011.1
20260505011903 74 189 4.3 10.4 0.00 0.00 0.00 70 1011.1
20260505011405 74 185 2.6 10.4 0.00 0.00 0.00 69 1011.1
20260505010903 74 167 4.3 10.4 0.00 0.00 0.00 69 1011.0
20260505010404 75 173 4.3 7.8 0.00 0.00 0.00 68 1011.0
20260505005904 75 185 4.3 7.8 0.00 0.00 0.00 68 1011.0
20260505005405 75 176 4.3 7.8 0.00 0.00 0.00 67 1010.8
20260505004904 75 167 2.6 7.8 0.00 0.00 0.00 67 1010.9
20260505004404 75 174 3.5 8.7 0.00 0.00 0.00 67 1010.9
20260505003904 76 179 4.3 8.7 0.00 0.00 0.00 67 1010.9
20260505002404 76 167 1.7 12.2 0.00 0.00 0.00 65 1010.9
20260505001405 77 169 3.5 12.2 0.00 0.00 0.00 65 1011.0
20260505000905 77 171 4.3 11.3 0.00 0.00 0.00 65 1011.0
20260505000405 77 161 4.3 10.4 0.00 0.00 0.00 64 1011.0
20260504235904 77 142 4.3 13.0 0.00 0.00 0.00 64 1011.1
20260504235404 77 183 6.1 13.0 0.00 0.00 0.00 63 1011.1
20260504234905 78 158 5.2 11.3 0.00 0.00 0.00 63 1011.1
20260504234404 78 173 4.3 10.4 0.00 0.00 0.00 63 1011.0
20260504233904 78 171 6.1 10.4 0.00 0.00 0.00 62 1011.2
20260504233404 78 166 1.7 12.2 0.00 0.00 0.00 62 1011.2
20260504232905 79 178 4.3 12.2 0.00 0.00 0.00 61 1011.2
20260504231904 78 164 3.5 11.3 0.00 0.00 0.00 62 1011.4
20260504231405 79 165 5.2 11.3 0.00 0.00 0.00 62 1011.4
20260504230904 79 187 4.3 12.2 0.00 0.00 0.00 61 1011.5
20260504230404 79 204 3.5 13.9 0.00 0.00 0.00 61 1011.6
20260504225904 79 171 5.2 13.9 0.00 0.00 0.00 61 1011.6
20260504225404 79 199 3.5 12.2 0.00 0.00 0.00 61 1011.6
20260504224905 79 164 6.1 12.2 0.00 0.00 0.00 60 1011.5
20260504224404 79 157 6.1 12.2 0.00 0.00 0.00 60 1011.6
20260504223903 79 167 5.2 10.4 0.00 0.00 0.00 61 1011.7
20260504222904 79 174 5.2 10.4 0.00 0.00 0.00 60 1011.9
20260504222405 79 184 2.6 10.4 0.00 0.00 0.00 61 1012.0
20260504221404 79 187 2.6 10.4 0.00 0.00 0.00 59 1012.1
20260504220904 80 192 4.3 10.4 0.00 0.00 0.00 59 1012.1
20260504220404 80 172 3.5 10.4 0.00 0.00 0.00 59 1012.1
20260504215904 80 189 5.2 12.2 0.00 0.00 0.00 59 1012.1
20260504215404 80 170 4.3 13.0 0.00 0.00 0.00 58 1012.2
20260504214904 80 184 4.3 13.0 0.00 0.00 0.00 58 1012.3
20260504214404 81 177 6.1 11.3 0.00 0.00 0.00 57 1012.3
20260504213905 81 185 4.3 10.4 0.00 0.00 0.00 56 1012.3
20260504213404 82 180 3.5 13.9 0.00 0.00 0.00 57 1012.4
20260504212905 82 159 5.2 13.9 0.00 0.00 0.00 56 1012.3
20260504212404 82 179 5.2 11.3 0.00 0.00 0.00 56 1012.3
20260504211904 82 186 4.3 12.2 0.00 0.00 0.00 55 1012.5
20260504210904 83 163 4.3 12.2 0.00 0.00 0.00 55 1012.6
20260504205905 83 159 5.2 11.3 0.00 0.00 0.00 54 1012.6
20260504205404 84 195 4.3 11.3 0.00 0.00 0.00 52 1012.7
20260504204904 84 171 4.3 11.3 0.00 0.00 0.00 50 1012.6
20260504204404 85 167 4.3 10.4 0.00 0.00 0.00 51 1012.8
20260504203904 85 176 3.5 10.4 0.00 0.00 0.00 53 1012.8
20260504203404 84 169 3.5 8.7 0.00 0.00 0.00 53 1012.9
20260504202903 84 166 4.3 10.4 0.00 0.00 0.00 52 1013.0
20260504202405 84 202 4.3 10.4 0.00 0.00 0.00 51 1013.0
20260504201904 84 182 1.7 10.4 0.00 0.00 0.00 51 1013.1
20260504201405 84 194 2.6 12.2 0.00 0.00 0.00 51 1013.2
20260504200905 84 252 5.2 12.2 0.00 0.00 0.00 49 1013.2
20260504200405 84 213 2.6 10.4 0.00 0.00 0.00 52 1013.2
20260504195404 85 175 4.3 10.4 0.00 0.00 0.00 50 1013.4
20260504194905 85 170 6.1 10.4 0.00 0.00 0.00 49 1013.4
20260504193904 86 185 2.6 10.4 0.00 0.00 0.00 48 1013.5
20260504192905 87 203 3.5 8.7 0.00 0.00 0.00 47 1013.9
20260504192405 87 205 2.6 10.4 0.00 0.00 0.00 48 1013.9
20260504191904 86 211 2.6 10.4 0.00 0.00 0.00 50 1013.9
20260504191404 86 183 4.3 13.0 0.00 0.00 0.00 51 1013.9
20260504190905 85 150 5.2 13.0 0.00 0.00 0.00 48 1014.0